Location: Newark
(20.1200°S, 168.9600°E)
Time: 08:02:43
(UTC+00:00)

BEESAT - Visible Passes

Search period start: 26 January 2020 00:00
Search period end: 05 February 2020 00:00
Orbit: 701 x 708 km, 98.6° (Epoch: 26 January)

Date Brightness Start Highest point End Pass type
(mag) Time Alt. Az. Time Alt. Az. Time Alt. Az.
26 Jan ? 17:04:28 10° E 17:05:02 10° E 17:05:36 10° ENE visible
27 Jan ? 17:44:10 10° SSE 17:48:34 36° E 17:52:56 10° NNE visible
29 Jan ? 17:33:38 10° SE 17:37:39 26° E 17:41:37 10° NNE visible
31 Jan ? 17:23:18 10° SE 17:26:42 19° E 17:30:05 10° NE visible
02 Feb ? 17:13:19 10° ESE 17:15:46 14° E 17:18:12 10° NE visible
03 Feb ? 17:54:38 10° SSE 17:59:16 47° E 18:03:51 10° N visible
